Kezdőlap
METAR-TAF:

METAR-TAF

Repülőterek :

Marshall, Missouri, Amerikai Egyesült Államok

földrajzi szélesség: 39-05-44N, földrajzi hosszúság: 093-12-10W, magasság: 237 m

Jelenlegi meteorológiai megfigyelések

A jelentés 31 perccel ezelõtt készült, 16:55 UTC
Keleti szél 3 kt
Hőmérséklet 5°C
Páratartalom 60%
Légköri nyomás 1023 hPa
Látótávolság: 16.1 km
Borult 3800 lábon

METAR: KMHL 081655Z AUTO 09003KT 10SM OVC038 05/M02 A3020 RMK AO2

Idő: 11:26 (17:26 UTC)


TAF: hiányzik

Meteorológiai megfigyelések és előrejelzések több, mint 4000 repülőtéren (METAR és TAF jelentéseket).

A térképen piros és sárga pontok jelzik az elérhető meteorológiai állomásokat.

Mozgassa az egeret a pont fölött, hogy megjelenjen az állomás neve.

Azután kattintson az időjárási megfigyelések és előrejelzések megtekintéséhez.

A térkép megváltoztatása: kattintson a fekete keresztel jelölt zöld gombra ráközelítéshez, a vonallal jelölt zöld gombra távolításhoz, vagy a zöld nyilakra a szomszédos térképek eléréséhez.


METAR-TAF: